TimeEST,TemperatureF,Dew PointF,Humidity,Sea Level PressureIn,VisibilityMPH,Wind Direction,Wind SpeedMPH,Gust SpeedMPH,PrecipitationIn,Events,Conditions,WindDirDegrees,DateUTC
12:53 AM,28.9,27.0,92,30.21,10.0,East,6.9,-,N/A,,Overcast,80,2012-12-15 05:53:00
1:53 AM,28.9,27.0,92,30.19,10.0,East,5.8,-,N/A,,Overcast,90,2012-12-15 06:53:00
2:53 AM,30.9,28.9,92,30.19,10.0,East,8.1,-,N/A,,Overcast,100,2012-12-15 07:53:00
3:53 AM,32.0,30.0,92,30.17,10.0,ESE,10.4,-,N/A,,Overcast,110,2012-12-15 08:53:00
4:30 AM,33.8,30.2,87,30.12,10.0,ESE,9.2,-,N/A,,Overcast,110,2012-12-15 09:30:00
4:53 AM,33.1,30.9,92,30.16,10.0,ESE,8.1,-,N/A,,Overcast,120,2012-12-15 09:53:00
5:53 AM,33.1,30.9,92,30.16,10.0,ESE,10.4,-,N/A,,Overcast,110,2012-12-15 10:53:00
6:53 AM,33.1,30.0,89,30.15,10.0,ESE,11.5,20.7,N/A,,Overcast,110,2012-12-15 11:53:00
7:31 AM,33.8,30.2,87,30.11,8.0,ESE,9.2,20.7,N/A,,Overcast,120,2012-12-15 12:31:00
7:53 AM,33.1,30.9,92,30.14,7.0,ESE,11.5,-,N/A,,Overcast,110,2012-12-15 12:53:00
8:53 AM,33.1,30.9,92,30.11,5.0,ESE,12.7,-,N/A,,Overcast,110,2012-12-15 13:53:00
9:43 AM,33.8,30.2,87,30.04,5.0,ESE,11.5,-,N/A,,Mostly Cloudy,110,2012-12-15 14:43:00
9:53 AM,34.0,30.9,89,30.08,5.0,ESE,11.5,-,N/A,,Scattered Clouds,110,2012-12-15 14:53:00
10:53 AM,35.1,30.9,85,30.04,6.0,ESE,12.7,-,N/A,,Clear,110,2012-12-15 15:53:00
11:53 AM,35.1,30.9,85,30.04,6.0,SE,11.5,20.7,N/A,,Overcast,130,2012-12-15 16:53:00
12:53 PM,35.1,30.9,85,29.96,5.0,ESE,16.1,20.7,N/A,,Overcast,110,2012-12-15 17:53:00
1:53 PM,35.1,30.9,85,29.96,4.0,SE,11.5,-,N/A,,Overcast,130,2012-12-15 18:53:00
2:26 PM,35.6,32.0,87,29.93,4.0,SSE,6.9,-,N/A,,Overcast,160,2012-12-15 19:26:00
2:32 PM,33.8,30.2,87,29.92,2.5,SE,6.9,-,0.00,Snow,Light Snow,140,2012-12-15 19:32:00
2:35 PM,33.8,30.2,87,29.92,1.5,SE,6.9,-,0.00,Snow,Light Snow,140,2012-12-15 19:35:00
2:40 PM,33.8,30.2,87,29.91,0.8,SE,8.1,-,0.00,Snow,Light Snow,130,2012-12-15 19:40:00
2:53 PM,33.1,30.9,92,29.94,0.8,East,9.2,-,0.02,Snow,Light Snow,100,2012-12-15 19:53:00
3:10 PM,33.8,32.0,93,29.88,0.8,East,10.4,-,0.03,Snow,Light Snow,90,2012-12-15 20:10:00
3:21 PM,33.8,32.0,93,29.87,1.2,East,10.4,-,0.04,Snow,Light Snow,90,2012-12-15 20:21:00
3:37 PM,33.8,32.0,93,29.85,2.0,East,12.7,-,0.04,,Overcast,100,2012-12-15 20:37:00
3:53 PM,33.1,32.0,96,29.88,2.0,East,11.5,-,0.04,Snow,Light Snow,100,2012-12-15 20:53:00
4:07 PM,33.8,32.0,93,29.83,3.0,East,12.7,-,0.01,Snow,Light Snow,100,2012-12-15 21:07:00
4:34 PM,33.8,33.8,100,29.80,4.0,East,13.8,-,0.02,Rain,Light Rain,100,2012-12-15 21:34:00
4:47 PM,33.8,33.8,100,29.81,4.0,East,13.8,-,0.02,Rain,Light Rain,100,2012-12-15 21:47:00
4:53 PM,34.0,33.1,96,29.84,4.0,East,11.5,20.7,0.02,Snow,Light Snow,100,2012-12-15 21:53:00
5:53 PM,35.1,33.1,92,29.80,4.0,ESE,15.0,25.3,0.03,,Overcast,110,2012-12-15 22:53:00
6:53 PM,35.1,34.0,96,29.78,7.0,ESE,17.3,25.3,0.00,Rain,Light Rain,110,2012-12-15 23:53:00
7:42 PM,35.6,33.8,93,29.72,7.0,ESE,16.1,24.2,0.00,,Overcast,120,2012-12-16 00:42:00
7:53 PM,35.1,33.1,92,29.76,7.0,ESE,16.1,23.0,0.00,Rain,Light Rain,120,2012-12-16 00:53:00
8:28 PM,33.8,32.0,93,29.71,3.0,ESE,15.0,23.0,0.04,Snow,Light Snow,120,2012-12-16 01:28:00
8:53 PM,34.0,32.0,92,29.73,6.0,ESE,12.7,24.2,0.05,Snow,Light Snow,120,2012-12-16 01:53:00
9:53 PM,35.1,33.1,92,29.70,7.0,ESE,10.4,18.4,0.01,,Overcast,120,2012-12-16 02:53:00
10:53 PM,36.0,35.1,97,29.67,6.0,ESE,10.4,18.4,0.01,,Overcast,120,2012-12-16 03:53:00
11:18 PM,35.6,35.6,100,29.63,5.0,SE,11.5,16.1,N/A,,Overcast,130,2012-12-16 04:18:00
11:53 PM,36.0,35.1,97,29.64,4.0,SE,8.1,-,0.01,,Overcast,130,2012-12-16 04:53:00